Location: Central Falls
(41.8900°N, 71.3929°W)
Time: 12:48:49
(UTC+00:00)

A-11 Canister half - Pass Details

Date: 06 December 2023
Orbit: 1512 x 1687 km, 47.2° (Epoch: 20 February)

Event Time Altitude Azimuth Distance (km) Brightness Sun altitude
Rises 07:28:02 0° 275° (W) 4,778 - -49.4°
Reaches altitude 10° 07:31:08 10° 279° (W) 3,817 - -48.8°
Maximum altitude 07:40:51 65° 1° (N) 1,784 - -47.1°
Exits shadow 07:43:43 49° 57° (ENE) 2,058 9.7 -46.5°
Drops below altitude 10° 07:50:55 10° 82° (E) 3,937 11.7 -45.2°
Sets 07:54:10 0° 86° (E) 4,935 12.4 -44.6°
